This is the latest recevied weather packets stored in our database for station/object LU4EGV-13. If no packets are shown the sender has not sent any weather packets the latest 10 day(s).
| Time | Temp. | Humidity | Pressure | Rain* | Wind** | Luminosity | Snow |
|---|---|---|---|---|---|---|---|
| 1788137150 | 15° C | 63% | 1013.3 hPa | 0 mm | - | - | - |
| 1788136590 | 15° C | 61% | 1013.2 hPa | 0 mm | - | - | - |
| 1788135936 | 15° C | 60% | 1013.1 hPa | 0 mm | - | - | - |
| 1788135331 | 15.56° C | 58% | 1013.2 hPa | 0 mm | - | - | - |
| 1788134724 | 15.56° C | 56% | 1013.3 hPa | 0 mm | - | - | - |
| 1788134120 | 15.56° C | 54% | 1013.2 hPa | 0 mm | - | - | - |
| 1788133512 | 15.56° C | 52% | 1013.3 hPa | 0 mm | - | - | - |
| 1788132907 | 16.11° C | 50% | 1013 hPa | 0 mm | - | - | - |
| 1788132300 | 16.11° C | 49% | 1013 hPa | 0 mm | - | - | - |
| 1788131693 | 16.67° C | 49% | 1013 hPa | 0 mm | - | - | - |
| 1788131097 | 16.67° C | 49% | 1013.1 hPa | 0 mm | - | - | - |
| 1788130481 | 16.67° C | 50% | 1013.2 hPa | 0 mm | - | - | - |
| 1788129874 | 16.67° C | 50% | 1013.1 hPa | 0 mm | - | - | - |
| 1788129268 | 17.22° C | 50% | 1012.9 hPa | 0 mm | - | - | - |
| 1788128663 | 17.22° C | 50% | 1012.8 hPa | 0 mm | - | - | - |
| 1788128058 | 17.78° C | 50% | 1012.8 hPa | 0 mm | - | - | - |
| 1788127450 | 17.78° C | 50% | 1013 hPa | 0 mm | - | - | - |
| 1788126845 | 17.78° C | 52% | 1013 hPa | 0 mm | - | - | - |
| 1788126238 | 18.33° C | 52% | 1012.8 hPa | 0 mm | - | - | - |
| 1788125631 | 18.89° C | 51% | 1012.9 hPa | 0 mm | - | - | - |
| 1788125025 | 19.44° C | 47% | 1012.8 hPa | 0 mm | - | - | - |
| 1788124419 | 19.44° C | 45% | 1012.7 hPa | 0 mm | - | - | - |
| 1788123813 | 20.56° C | 42% | 1012.7 hPa | 0 mm | - | - | - |
| 1788123219 | 20.56° C | 41% | 1012.8 hPa | 0 mm | - | - | - |
| 1788122606 | 21.67° C | 36% | 1012.8 hPa | 0 mm | - | - | - |
* Rain latest hour (hover to see other rain measurements)
** Current wind speed in m/s (hover to see current wind gust speed)